{"data":{"norad_id":58878,"intl_designator":"2024-020C","name":"STARLINK-31300","alt_names":[],"object_type":"PAYLOAD","status":"ACTIVE","operator":null,"country":"US","launch_date":"2024-01-29","launch_site_code":"AFWTR","launch_vehicle":null,"mission":null,"orbit_class":"UNKNOWN","rcs_meters":null,"size_class":null,"mass_kg":null,"dimensions":null,"purposes":["comms"],"wikipedia_slug":null,"has_3d_model":false,"image_url":null,"decayed_at":null,"tle_current":{"epoch":"2026-09-19T22:07:37.286112Z","epoch_age_seconds":202534,"freshness":"STALE","line1":"1 58878U 24020C   26262.92195933  .00001860  00000+0  66188-4 0  9990","line2":"2 58878  53.1582 136.3545 0001129  86.0020 274.1112 15.34387346147866","mean_motion":15.34387346,"eccentricity":0.0001129,"inclination_deg":53.1582,"raan_deg":136.3545,"arg_perigee_deg":86.002,"mean_anomaly_deg":274.1112,"bstar":6.6188e-5,"rev_number":14786,"period_min":93.848532038142,"perigee_km":461.96851571093,"apogee_km":463.51318592965,"semimajor_km":6840.8778508203,"source":"CELESTRAK","updated_at":"2026-09-21T09:00:33.992164Z"}}}